Location: Oakland
(41.0130°N, 74.2650°W)
Time: 23:06:37
(UTC-04:00)

Daily predictions for brighter satellites

Satellite Brightness Start Highest point End
(mag) Time Altitude Azimuth Time Altitude Azimuth Time Altitude Azimuth
Cosmos 923 Rocket 4.1 20:57:44 10° NNW 21:02:57 71° ENE 21:08:07 10° SSE
Cosmos 304 Rocket 4.0 20:58:30 10° N 21:03:15 56° ENE 21:07:58 10° SSE
SJ-11-01 4.3 21:00:10 10° SSE 21:04:52 78° ENE 21:09:37 10° N
CZ-4 DEB 3.8 21:03:38 10° S 21:06:44 47° W 21:09:52 10° NNW
Cosmos 1908 3.3 21:03:35 10° N 21:07:29 67° E 21:11:23 10° SSE
Delta 2 Rocket 3.8 21:04:26 10° WSW 21:07:52 34° S 21:11:02 10° ESE
SPOT 5 3.5 21:03:38 10° SE 21:07:53 38° ENE 21:12:21 10° N
Cosmos 1674 2.7 21:07:43 10° S 21:11:31 70° E 21:15:23 10° NNE
Cosmos 773 Rocket 4.2 21:07:08 10° NNW 21:12:20 76° WSW 21:17:34 10° SSE
Cosmos 2151 3.2 21:09:29 10° SSE 21:13:31 49° E 21:17:36 10° NNE
deb Chang Zheng 4 3.5 21:11:20 10° NNE 21:15:40 71° ESE 21:19:59 10° S
NOSS 3-1 (A) 4.0 21:11:15 10° S 21:16:26 34° ESE 21:22:04 10° NE
Cosmos 2227 Rocket 3.9 21:14:42 10° ESE 21:17:08 13° E 21:19:34 10° ENE
Nimbus 7 Rocket 4.5 21:12:28 10° NNE 21:18:15 60° ESE 21:24:02 10° S
YAOGAN 6 4.0 21:15:48 10° SE 21:18:44 24° ENE 21:21:40 10° NNE
Cosmos 1515 Rocket 4.4 21:18:49 10° NNW 21:23:08 51° W 21:27:22 10° S
Cosmos 2058 3.5 21:19:47 10° SSE 21:23:34 37° E 21:27:22 10° NNE
Cosmos 1300 3.7 21:22:16 10° NNE 21:25:44 31° ENE 21:28:45 12° SE
Cosmos 883 Rocket 4.5 21:20:31 10° N 21:26:45 81° E 21:32:53 10° S
DELTA 2 R/B(2) 3.3 21:26:04 10° WSW 21:27:37 43° SSE 21:29:44 10° E
Sich 1 4.1 21:26:07 10° SSE 21:29:50 28° E 21:33:35 10° NNE
Cosmos 2333 Rocket 3.7 21:28:04 10° N 21:32:43 24° NE 21:37:21 10° ESE
Cosmos 1633 Rocket 4.0 21:31:19 12° SSE 21:34:49 30° E 21:38:37 10° NNE
Cosmos 1151 Rocket 3.4 21:31:38 10° NNW 21:35:55 65° W 21:40:12 10° S
MetOp-A 4.3 21:30:57 10° SSE 21:36:10 61° ENE 21:41:27 10° N
Cosmos 1437 2.9 21:33:24 10° SSW 21:36:41 75° W 21:39:58 10° N
ATLAS 2AS CENTAUR R/B 4.0 21:33:23 10° SSE 21:38:59 24° ESE 21:44:55 10° ENE
USA 245 3.7 21:38:04 16° ESE 21:39:03 21° ENE 21:40:53 10° NNE
Cosmos 2297 Rocket 3.8 21:42:05 13° ESE 21:43:53 15° E 21:47:03 10° ENE
COSMOS 2428 2.8 21:39:14 10° NNW 21:44:55 72° ENE 21:49:36 15° SSE
ARGOS 3.7 21:40:45 14° SE 21:45:01 43° ENE 21:50:05 10° N
ERS-1 Rocket 4.2 21:41:47 10° SSW 21:46:30 40° W 21:51:15 10° NNW
Cosmos 1455 4.3 21:45:57 10° NE 21:47:58 14° ENE 21:49:25 12° E
Envisat 3.3 21:43:03 10° S 21:48:06 67° WSW 21:53:10 10° NNW
Cosmos 2219 Rocket 3.0 21:43:44 10° N 21:48:58 39° ENE 21:53:00 16° ESE
Cosmos 1939 Rocket 3.8 21:45:34 10° S 21:49:19 43° W 21:53:03 10° NNW
Terra 3.5 21:47:49 12° ESE 21:50:39 20° ENE 21:54:03 10° NNE
Cosmos 1805 Rocket 3.5 21:46:29 10° S 21:50:56 78° E 21:55:23 10° N
ATLAS 3B R/B 4.3 21:45:50 10° NNW 21:51:33 25° NE 21:56:59 10° E
ERBS 3.5 21:49:50 16° SSE 21:51:37 23° SE 21:54:28 10° ENE
Cosmos 2315 Rocket 4.1 21:52:55 10° N 21:59:08 80° W 22:05:19 10° S
Cosmos 1726 2.1 21:57:41 10° N 22:01:28 67° E 22:03:46 22° SSE
NOSS 3-1 (C) 3.5 21:56:25 10° SW 22:02:16 86° WNW 22:08:49 10° NE
SL-23 DEB 4.2 21:58:16 10° WNW 22:03:07 53° SW 22:04:59 24° SSE
SL-08 RB Rocket 4.1 22:00:48 21° SE 22:03:32 48° ENE 22:07:52 10° N
CZ-3A R/B 4.4 21:42:29 10° WSW 22:04:01 29° SSW 22:07:48 18° SSE
CZ-4 SHROUD 4.1 22:02:06 15° S 22:04:30 45° W 22:07:32 10° NNW
OTV 4 2.5 22:03:12 10° SSW 22:04:07 15° SSW 22:04:07 15° SSW
OAO 2 Rocket 4.0 22:00:54 10° SW 22:05:47 37° SSE 22:09:07 18° ESE
Cosmos 2237 4.4 22:00:44 10° NNW 22:06:28 73° WSW 22:10:47 18° SSE
Cosmos 1937 Rocket 3.6 22:02:33 10° S 22:07:35 55° ESE 22:12:40 10° NNE
H-2A R/B 3.8 22:03:37 10° SSW 22:07:35 30° W 22:11:35 10° NW
Cosmos 220 Rocket 4.2 22:04:31 16° S 22:07:48 50° ESE 22:12:06 10° NNE
Meteor 2-11 Rocket 4.4 22:02:52 10° N 22:09:04 88° E 22:14:04 16° S
Cosmos 1980 4.4 22:04:23 10° N 22:09:45 42° ENE 22:13:10 20° ESE
Cosmos 1707 Rocket 3.7 22:05:37 10° N 22:09:59 75° W 22:13:15 17° S
Cosmos 1666 Rocket 3.6 22:09:24 11° S 22:13:39 81° W 22:18:07 10° N
Meteor 2-10 4.5 22:08:26 10° N 22:14:04 56° ENE 22:17:31 23° SSE
Cosmos 2298 Rocket 4.1 22:08:45 10° SSW 22:14:04 79° WNW 22:19:25 10° NNE
Cosmos 2219 4.1 22:10:37 10° SW 22:16:11 51° WNW 22:21:49 10° NNE
Tiangong 1 0.9 22:13:41 10° WSW 22:16:47 87° S 22:18:55 19° ENE
Cosmos 990 Rocket 4.2 22:13:36 20° SSE 22:16:52 46° ESE 22:21:47 10° NNE
CZ-4 R/B 3.8 22:13:28 10° NNE 22:18:24 72° ESE 22:22:06 17° S
Nadezhda 1 Rocket 4.3 22:13:06 10° N 22:19:01 50° ENE 22:22:31 24° SE
Meteor 1-4 Rocket 2.5 22:15:48 10° N 22:19:34 80° E 22:21:10 32° SSE
Cosmos 2237 Rocket 2.7 22:16:34 10° NNW 22:22:06 48° ENE 22:25:15 24° ESE
CZ-4C R/B 3.3 22:21:28 35° SE 22:22:34 50° ENE 22:25:57 10° N
Cosmos 2333 4.4 22:18:12 10° NNW 22:23:55 71° WSW 22:27:36 23° S
Cosmos 1271 Rocket 2.6 22:23:00 10° N 22:26:52 90° SE 22:28:33 33° S
Cosmos 2082 3.9 22:23:04 19° S 22:26:55 51° ESE 22:32:27 10° NNE
Cosmos 1470 Rocket 3.7 22:25:29 30° SSE 22:27:19 54° E 22:31:33 10° NNE
Cosmos 1933 Rocket 3.7 22:26:29 30° SSE 22:28:26 54° E 22:32:48 10° NNE
SL-08 R/B 4.4 22:23:34 15° S 22:28:48 83° E 22:35:08 10° N
CZ-4B R/B 3.9 22:25:12 10° N 22:30:25 65° WNW 22:35:32 10° SSW
Cosmos 1745 Rocket 3.9 22:27:24 19° S 22:32:03 76° E 22:38:14 10° N
Cosmos 2360 Rocket 4.1 22:28:00 10° NW 22:32:14 22° W 22:36:27 10° SSW
NOSS 0 Rocket 3.9 22:27:48 10° NNW 22:33:59 80° ENE 22:37:22 29° SSE
Cosmos 1703 3.2 22:32:28 27° SSW 22:34:33 82° W 22:38:29 10° N
Iridium 2 3.6 22:33:22 35° S 22:34:55 83° E 22:38:47 10° N
SL-14 R/B 4.4 22:31:35 10° SSW 22:35:18 42° WNW 22:39:08 10° N
NOAA 11 4.3 22:32:40 23° S 22:36:08 72° WSW 22:41:37 10° NNW
H-2A R/B 2.2 22:36:57 30° SSE 22:39:34 68° ENE 22:45:00 10° N
Cosmos 1626 2.2 22:41:26 48° SE 22:42:10 59° E 22:45:53 10° NNE
SeaSat 1 4.4 22:46:37 12° E 22:49:27 19° NE 22:52:49 10° N
Cosmos 1386 Rocket 4.3 22:51:00 27° S 22:54:26 83° E 23:00:29 10° N
Lacrosse 4 Rocket 2.7 22:53:06 10° N 22:57:09 33° NE 22:58:32 27° E
Cosmos 1125 Rocket 3.8 22:56:55 39° SE 22:58:12 47° ESE 23:03:18 10° NNE
Cosmos 2227 Rocket 2.2 22:55:43 16° SSW 23:00:22 82° WNW 23:06:04 10° NNE
Cosmos 1862 Rocket 3.7 23:04:35 10° NNW 23:08:54 65° W 23:10:02 45° SSW
CARTOSAT-1 3.7 23:08:07 45° SSW 23:09:15 64° WSW 23:13:34 10° NNW
Cosmos 2181 Rocket 4.3 23:03:21 10° N 23:09:40 58° E 23:12:03 37° SE
Spot 2 4.3 23:05:01 10° NNE 23:10:08 84° ESE 23:11:50 42° S
COSMOS 2455 3.1 23:05:42 10° NNW 23:11:42 62° ENE 23:14:03 36° ESE
SAR-Lupe-2 3.7 23:15:11 61° WSW 23:15:21 63° WSW 23:18:55 10° NNW
SL-16 R/B 2.5 23:10:42 10° NNW 23:16:20 59° ENE 23:18:12 40° ESE
Cosmos 1933 3.4 23:12:56 10° N 23:16:59 62° E 23:17:12 60° E
Cosmos 2333 Rocket 2.6 23:11:43 10° NNW 23:17:19 54° WSW 23:19:24 36° SSW
Cosmos 372 Rocket 4.4 23:18:28 41° ESE 23:18:51 41° ESE 23:23:45 10° NNE
Cosmos 44 Rocket 3.8 23:23:53 43° ESE 23:23:53 43° ESE 23:28:44 10° NE
Cosmos 1455 3.2 23:20:20 10° NNW 23:23:52 37° W 23:24:28 35° WSW
FALCON 9 R/B 3.4 23:02:19 10° W 23:24:08 59° SSW 23:27:17 35° SE
BREEZE-M DEB (TANK) 2.8 23:23:31 10° NW 23:25:19 58° NNW 23:25:19 58° NNW
Cosmos 2297 Rocket 2.3 23:23:49 25° SW 23:27:14 72° WNW 23:32:54 10° NNE
Terra 2.5 23:26:42 36° SW 23:28:02 45° W 23:32:37 10° NNW
ERBS 4.1 23:25:08 10° WSW 23:28:20 33° NW 23:31:32 10° NNE
ATLAS 2AS CENTAUR R/B 3.1 23:21:38 10° SW 23:29:09 77° NW 23:37:16 10° NNE
Cosmos 2219 Rocket 3.5 23:27:59 10° NW 23:32:45 29° WSW 23:34:43 23° SW
H-2A R/B 4.3 23:30:09 10° NE 23:32:31 20° ENE 23:32:31 20° ENE
Spot 4 4.4 23:34:28 41° SW 23:35:37 50° W 23:40:21 10° NNW
Cosmos 1869 Rocket 3.4 23:36:29 74° SE 23:36:46 78° E 23:41:15 10° N
Aureole 2 Rocket 4.2 23:35:54 10° N 23:38:01 24° NE 23:38:01 24° NE
ATLAS 3B R/B 2.6 23:36:08 10° NW 23:43:10 85° SW 23:45:16 47° SSE
Cosmos 1900 4.3 23:40:58 10° NW 23:45:54 68° WSW 23:46:21 64° SSW
COS B Rocket 3.4 23:45:47 10° N 23:49:37 76° WNW 23:49:37 76° WNW
Cosmos 1603 4.5 23:44:54 10° NNW 23:50:20 43° ENE 23:52:01 35° ESE
ALOS 2 3.5 23:52:44 36° ENE 23:52:56 36° ENE 23:56:58 10° N
Tiangong 1 3.8 23:50:26 10° W 23:51:01 14° WNW 23:51:01 14° WNW
